Theta_e
331 330 331 330 331 331 330 329 329 328 328 327 327 325 324 324 325 325 325 325 325 325 324 325 326 326 326 327 327 327 327 328 328 328 327 327 327 324 319 322 325 327 325 325 325 324 323 321 320 320 321 319 318 318 318 317 317 316 316 316 315 315 314 314 313 313 313 313 312 312 312 312 312 311 311 311 311 311 311 311 311 311 311 311 311
330 330 330 330 331 330 329 329 327 327 327 326 325 324 324 323 324 324 324 324 324 324 324 324 324 324 325 326 326 326 327 327 327 327 327 326 326 326 315 319 322 328 326 325 326 324 323 323 322 321 319 318 318 318 317 317 317 316 316 315 315 314 314 313 313 312 312 312 312 312 311 311 311 311 310 310 310 310 310 310 310 310 310 309 309
330 330 329 330 329 329 328 328 326 326 326 326 325 324 323 323 323 323 323 323 323 322 323 323 324 323 322 323 324 324 324 325 325 326 325 325 325 325 325 316 319 323 328 323 324 323 323 323 322 321 320 319 318 318 318 318 317 316 316 316 315 314 314 313 313 313 312 312 311 311 311 310 310 310 310 310 310 310 309 309 309 309 309 308 308
331 330 329 329 328 328 329 327 326 325 325 325 323 324 323 323 322 322 323 323 322 321 322 322 322 322 321 322 322 322 323 323 323 323 323 324 324 325 325 323 317 319 323 326 324 323 323 323 322 321 320 320 319 319 318 318 317 317 316 316 316 314 314 313 313 312 312 312 311 310 310 309 309 309 309 309 309 309 309 308 309 309 308 308 307
329 330 329 329 328 328 328 327 327 324 323 323 322 322 320 320 320 319 320 320 320 320 320 321 321 320 320 320 319 320 320 320 321 320 320 321 322 323 324 325 324 317 316 320 325 324 323 321 321 321 321 321 320 319 319 317 317 317 317 316 316 315 314 313 312 312 312 312 311 310 310 310 309 309 309 309 309 309 309 308 308 307 307 308 308
328 329 329 328 328 328 328 327 326 323 321 321 321 320 320 320 319 318 316 318 319 320 319 319 319 319 319 318 317 318 318 318 318 318 318 319 319 320 321 322 323 323 322 317 319 323 325 323 322 321 321 321 320 320 320 319 318 317 316 316 316 315 315 314 313 312 312 312 311 311 310 310 309 309 308 308 308 307 308 307 308 307 307 307 307
327 326 326 325 325 326 327 327 326 323 321 319 320 320 320 319 318 317 318 317 319 320 319 319 319 317 318 317 317 316 316 317 317 316 316 317 316 317 317 318 320 321 322 322 314 315 320 324 322 321 321 321 320 320 320 320 319 318 317 317 317 316 316 315 315 314 313 312 311 311 310 310 309 309 308 308 307 307 307 307 306 307 307 306 306
329 328 326 326 325 325 326 327 326 322 321 318 318 318 318 319 318 319 317 317 318 318 318 318 318 317 318 315 316 314 315 316 315 315 315 314 314 315 315 316 317 318 316 320 320 319 314 319 323 323 322 322 321 321 322 321 320 319 318 319 319 318 317 316 315 314 314 313 312 311 310 310 309 309 308 308 307 307 307 306 306 306 306 306 306
332 330 328 328 327 327 328 328 326 322 321 318 317 319 318 317 317 317 318 317 317 317 316 316 316 315 315 314 314 313 313 314 313 313 312 312 313 312 312 313 313 308 314 317 317 320 314 313 318 320 320 321 321 321 322 322 322 320 320 320 320 320 318 317 316 315 314 313 313 310 310 310 309 309 308 308 307 307 307 306 307 306 306 307 306
331 330 329 330 330 329 328 326 323 321 320 319 318 319 319 318 317 316 316 316 315 315 315 314 313 311 310 311 311 310 311 311 311 307 310 311 311 311 311 311 312 312 312 313 311 312 316 315 313 314 313 317 322 322 322 322 320 320 322 322 321 320 319 317 316 315 315 314 312 311 310 310 309 309 308 308 307 307 307 306 307 307 307 307 307
329 329 329 330 329 327 326 325 323 321 320 319 319 318 317 317 316 316 314 314 314 315 315 312 310 308 307 307 308 308 309 308 306 307 308 309 311 310 309 309 309 309 310 310 308 307 309 314 318 318 318 313 320 322 323 321 319 320 320 319 319 319 319 318 318 315 314 313 312 311 311 310 310 309 308 308 308 307 307 306 307 306 307 307 306
330 330 328 326 326 325 324 324 323 322 321 319 318 316 314 313 314 314 312 310 309 311 311 309 307 305 302 303 304 305 305 305 304 304 305 306 307 309 309 310 309 309 308 308 307 306 306 309 310 313 316 316 315 316 320 321 320 320 320 320 319 319 318 319 318 316 315 314 313 311 311 310 310 309 309 308 308 307 307 306 306 306 307 307 306
330 331 328 323 324 324 322 321 321 320 320 319 318 317 314 311 310 310 310 309 308 308 307 307 304 303 303 303 303 304 304 304 303 304 304 305 305 306 308 308 309 308 308 308 307 306 306 305 305 305 306 310 313 312 315 317 318 321 320 320 319 320 319 318 319 317 315 314 313 313 311 310 310 310 309 308 308 307 307 307 307 307 307 306 306
332 332 330 329 326 325 323 321 319 318 320 320 316 311 311 309 309 309 309 308 307 307 304 305 303 304 304 303 304 305 305 305 303 304 304 304 304 305 306 307 308 307 306 306 307 306 305 304 302 301 302 304 308 313 314 315 315 320 321 320 320 320 320 318 318 317 316 315 314 313 313 311 310 310 309 309 309 308 308 307 307 307 306 306 306
333 329 328 329 328 325 323 323 321 319 317 316 315 314 312 311 310 310 308 308 307 306 304 306 307 307 308 303 301 302 307 306 307 307 306 305 304 304 305 306 306 307 305 304 304 305 305 304 303 302 300 301 302 306 310 309 312 311 317 318 318 321 321 320 319 318 318 315 314 314 313 312 311 311 311 310 309 309 308 308 307 306 306 306 306
332 330 329 328 327 325 326 325 322 319 317 316 316 315 314 313 310 309 309 306 305 304 305 306 308 308 302 300 301 302 302 307 310 310 308 307 305 304 305 304 305 304 304 302 303 303 304 304 302 301 301 301 302 303 305 310 310 307 307 310 313 318 319 320 320 319 318 318 316 314 314 313 312 311 310 310 309 309 308 307 307 307 306 306 306
334 332 328 329 328 327 327 325 321 320 319 319 319 318 316 314 311 309 308 308 306 304 303 305 306 310 309 302 299 297 301 307 306 308 310 307 306 304 304 304 303 303 301 300 301 302 302 301 301 301 301 301 301 302 302 304 306 306 307 302 305 313 317 320 319 319 318 319 317 315 315 313 313 313 312 311 310 310 310 309 308 307 307 306 306
335 334 331 326 327 327 326 325 322 320 319 320 321 319 315 312 311 311 310 310 311 306 304 303 305 307 310 311 310 307 306 304 304 305 304 308 308 306 304 303 303 300 299 299 299 300 301 300 301 302 302 302 302 300 299 300 301 305 308 310 309 311 314 317 319 319 319 318 318 317 316 314 313 313 312 311 311 310 309 308 306 306 306 306 306
334 335 333 330 329 329 327 325 325 323 320 319 318 317 316 315 314 313 313 311 310 308 307 303 303 305 308 309 310 309 305 304 303 307 304 304 302 303 304 305 302 300 299 299 299 299 300 299 299 300 301 301 301 299 298 298 299 301 305 309 313 313 313 315 316 317 317 317 318 318 317 316 314 313 312 311 310 309 308 307 306 306 306 306 305
331 333 333 333 331 330 329 327 326 326 322 319 318 318 318 318 315 313 312 311 310 308 307 306 303 304 304 305 306 307 307 304 302 301 302 299 304 302 300 301 302 300 300 299 298 299 299 299 298 298 299 300 299 298 297 297 298 299 300 304 309 314 314 314 313 313 316 317 318 318 318 317 316 314 313 312 310 309 309 308 307 306 304 305 305
330 331 332 332 330 330 329 328 327 326 323 322 321 320 318 317 315 313 310 309 308 308 309 310 307 306 302 301 302 302 304 304 302 299 297 297 300 303 306 302 298 298 299 299 298 297 298 299 300 298 297 298 298 298 297 297 297 297 299 302 307 312 315 315 313 311 311 311 316 317 318 317 316 315 314 312 311 311 309 307 306 305 304 304 304
327 328 328 329 330 330 330 329 327 325 321 323 321 320 319 319 319 317 313 310 309 309 308 309 308 306 305 305 301 301 300 301 301 300 299 299 298 301 305 305 303 301 297 297 296 296 297 299 299 297 297 298 298 298 297 297 297 297 297 299 302 307 312 314 313 311 310 310 311 312 314 314 315 315 314 314 312 311 309 307 306 305 304 304 304
324 325 325 325 325 325 324 326 327 327 324 323 322 322 321 321 320 318 315 311 309 308 307 306 308 308 306 306 304 302 301 301 302 303 301 299 299 299 300 301 301 302 303 299 299 298 298 298 298 297 297 298 298 298 297 296 295 296 296 297 300 303 306 310 312 311 310 309 309 309 310 311 311 312 313 313 312 311 309 307 305 304 304 304 304
320 321 322 323 323 324 324 323 323 323 323 323 323 322 322 321 320 317 315 313 312 309 308 307 306 307 307 306 305 305 305 306 308 308 304 302 302 303 303 305 304 303 306 302 301 299 297 297 298 297 297 297 298 298 297 296 295 295 295 296 299 302 306 309 312 311 309 309 308 308 309 309 309 309 310 310 310 310 308 307 305 304 303 304 303
316 317 319 321 321 321 322 321 321 321 321 321 320 319 319 319 318 317 317 315 313 311 309 307 306 306 307 308 306 307 307 308 307 306 306 306 304 301 302 304 301 303 307 305 301 298 297 297 297 297 296 297 298 298 297 296 295 295 294 295 297 299 302 305 309 310 309 308 308 308 308 308 307 307 308 308 308 308 307 306 304 303 303 303 302
317 317 318 319 319 319 320 320 321 321 321 321 321 320 318 317 317 316 315 315 314 312 310 310 309 308 308 307 308 307 307 307 307 306 305 304 304 304 303 303 304 303 305 298 299 299 299 296 297 298 298 298 297 297 296 294 295 294 293 294 295 297 299 302 306 308 309 308 307 307 307 305 305 304 304 306 305 305 305 304 303 304 302 301 300
317 317 318 318 317 317 318 318 318 318 319 319 319 319 319 318 318 317 317 316 314 313 311 310 309 310 309 309 308 308 308 307 306 306 305 304 305 304 302 299 300 301 301 303 299 298 301 300 297 297 297 297 297 296 295 295 294 294 292 293 293 294 296 301 304 307 308 308 307 306 305 304 303 303 302 303 303 303 302 302 303 302 300 299 299
316 316 316 316 316 316 316 316 316 316 317 317 317 317 316 316 316 316 315 316 314 313 312 312 311 312 312 311 309 308 309 308 306 306 306 306 305 305 304 303 300 297 300 300 301 299 299 300 299 298 297 295 296 296 293 293 294 293 291 293 292 293 294 298 302 305 306 307 306 306 305 303 302 302 301 301 301 300 300 300 299 297 296 295 295
313 314 313 313 313 313 314 314 314 314 314 315 315 315 315 314 314 314 313 314 312 312 312 311 311 310 310 309 309 308 308 308 307 306 306 305 304 304 304 302 302 299 297 297 299 300 301 298 299 299 297 297 295 295 294 293 292 292 292 292 292 292 293 296 300 303 305 306 306 305 304 302 302 301 300 300 299 299 298 295 294 294 294 294 295
311 311 311 311 311 309 310 311 312 313 312 312 312 313 313 312 312 312 312 313 312 311 311 311 311 311 310 309 309 308 308 307 307 307 305 304 304 304 304 304 304 301 300 296 296 301 302 300 300 301 296 297 296 294 294 293 291 291 291 290 290 290 292 294 296 299 302 304 305 304 304 302 300 300 299 298 297 297 296 295 295 294 294 296 298
309 309 309 309 309 309 310 309 310 310 311 310 310 310 310 310 310 309 310 310 309 309 310 310 310 309 309 308 309 308 308 307 307 307 306 305 305 305 305 305 303 302 301 298 294 299 304 302 299 300 299 296 295 294 294 293 292 291 290 290 290 290 290 291 293 297 300 302 303 303 303 302 300 299 298 297 297 297 296 295 294 294 295 296 297
307 307 307 307 308 307 308 308 308 308 309 309 308 307 307 308 308 307 308 308 307 307 307 308 308 308 307 306 307 307 308 308 307 307 307 306 306 305 304 303 302 302 301 298 296 296 303 302 303 298 297 294 293 292 292 292 291 288 290 289 289 289 288 288 291 293 296 299 301 302 301 301 300 298 297 296 296 295 295 294 294 294 295 296 297
306 305 305 306 306 306 306 306 306 306 307 307 307 306 305 304 305 306 306 306 305 305 306 305 306 306 306 305 305 305 307 306 306 305 304 304 302 302 301 300 299 299 298 296 295 295 300 303 301 300 293 292 289 290 290 290 289 288 288 288 289 288 288 287 288 290 294 297 299 300 299 299 298 298 296 294 294 294 293 293 293 294 294 295 296
303 303 303 304 304 305 304 304 304 305 305 305 305 305 303 303 303 304 304 304 304 303 303 302 302 304 303 302 302 302 303 303 302 301 300 300 299 298 298 298 298 298 298 296 295 295 295 300 296 291 290 291 289 290 289 289 288 288 287 287 288 288 287 287 287 288 291 295 297 299 299 298 297 297 295 294 294 294 294 293 293 294 294 295 295
301 301 302 302 302 302 301 301 302 302 302 302 303 302 302 302 302 302 303 302 301 300 300 300 300 300 300 299 300 300 302 300 300 300 299 299 300 299 299 299 298 298 299 298 296 295 295 296 299 297 292 288 288 289 289 288 287 287 286 286 286 286 286 287 286 286 290 293 295 297 297 297 297 295 294 293 293 292 292 293 294 294 294 294 294
299 300 300 300 300 299 299 299 299 299 298 298 299 299 300 300 299 300 300 300 300 300 300 299 299 299 299 299 299 299 299 298 299 298 298 298 298 298 297 296 296 296 296 296 295 295 295 294 297 297 295 290 288 287 287 287 285 285 285 285 286 285 285 286 286 286 288 292 294 295 296 296 294 293 292 292 292 292 292 293 293 293 293 292 292
299 299 299 299 298 298 298 298 298 297 297 298 297 298 298 298 298 297 298 298 298 298 299 299 296 298 298 298 298 298 298 298 298 298 298 297 297 296 296 296 295 296 296 296 295 295 294 293 295 294 289 288 288 286 286 284 284 283 285 284 284 284 284 285 285 286 288 291 294 294 294 293 293 292 292 292 292 292 293 293 292 292 291 290 289
297 298 298 298 298 298 298 298 297 297 297 297 297 296 297 297 297 297 296 297 297 297 298 298 298 298 297 297 298 298 298 297 297 298 298 297 297 296 296 296 296 296 296 296 295 294 293 293 293 293 287 286 286 285 285 285 284 282 282 282 283 283 282 282 284 285 288 290 289 289 290 291 291 291 291 291 292 292 292 291 291 290 289 288 287
296 297 297 297 298 297 297 298 297 297 297 297 297 297 297 297 296 296 296 296 296 296 296 297 297 297 297 297 297 298 298 298 298 298 298 297 297 297 296 296 296 294 294 294 293 293 292 292 292 292 292 288 287 285 285 285 285 283 281 280 279 281 281 281 281 284 286 287 288 289 288 288 289 289 290 291 291 291 291 290 289 289 287 286 285
296 296 296 296 296 297 297 297 297 297 297 297 297 297 296 296 296 296 296 295 295 295 296 296 296 296 296 296 297 297 298 298 298 298 298 297 297 295 296 295 295 294 293 293 292 292 291 291 290 291 291 288 284 285 284 283 282 281 282 281 279 279 279 281 282 282 285 285 285 286 287 287 288 289 290 290 290 290 289 289 288 287 284 284 285
296 295 295 295 295 295 296 296 296 297 296 297 297 297 297 297 297 296 296 295 295 295 295 295 296 296 296 296 296 297 296 293 293 294 295 295 297 295 296 295 294 293 293 292 292 292 291 290 290 290 289 286 284 282 281 280 280 280 282 281 280 280 280 280 281 283 284 283 284 284 284 285 285 285 286 286 287 288 287 287 285 284 283 284 285
294 295 294 295 295 295 295 295 296 296 296 297 293 291 292 294 295 295 295 295 295 294 294 294 295 295 296 296 296 291 290 290 290 291 292 293 293 295 296 296 293 292 291 291 291 291 290 289 289 289 288 286 286 283 282 282 282 282 281 281 279 280 280 279 280 281 283 283 282 281 282 284 284 284 284 283 284 285 285 283 282 282 282 284 285
292 293 294 294 294 295 295 295 295 295 296 296 292 293 293 293 293 294 294 294 295 294 294 293 293 294 295 295 296 293 291 290 291 290 291 292 292 292 292 292 293 293 291 290 290 291 290 290 290 290 289 288 288 285 283 282 282 282 281 281 280 279 278 277 276 279 282 282 281 280 281 283 284 281 282 282 282 283 283 282 283 283 283 285 285
291 291 291 292 293 293 294 294 294 294 295 292 293 293 292 293 292 293 295 294 294 294 294 294 294 294 294 294 295 295 295 294 294 293 291 291 291 291 291 292 292 292 293 291 291 290 290 289 290 289 289 288 288 286 282 282 281 281 281 281 280 279 278 278 278 276 280 283 281 280 279 281 283 282 280 281 281 281 281 282 283 284 284 284 284
289 289 291 291 292 292 293 293 293 293 294 292 292 292 292 292 292 292 294 294 294 294 294 294 294 294 294 293 293 294 295 290 290 293 293 293 290 290 290 290 290 291 292 293 293 291 291 290 289 289 289 289 288 287 285 283 284 280 281 280 281 280 280 279 280 280 280 283 282 280 278 279 281 280 279 280 281 281 281 283 284 284 284 284 284
288 289 289 290 290 291 291 291 291 292 292 291 292 292 291 292 292 292 293 294 294 294 294 294 294 294 294 293 293 293 294 294 293 292 292 292 292 292 291 291 290 289 290 290 291 291 290 290 290 289 289 290 288 288 285 285 282 281 281 280 281 280 280 280 282 282 282 284 281 280 277 278 280 279 278 279 280 280 280 282 284 284 284 283 283
288 288 288 288 288 288 289 289 290 290 292 291 291 291 291 292 292 292 293 293 293 293 294 294 294 294 294 294 293 293 293 293 293 293 291 291 289 289 289 289 289 289 290 289 289 289 290 290 290 290 290 290 289 287 285 285 284 283 283 283 282 281 282 283 282 282 281 283 283 281 276 277 280 278 278 279 279 279 281 282 283 283 283 282 282
288 288 288 288 288 287 288 288 288 288 290 290 290 290 291 291 292 291 292 292 292 292 292 293 293 294 294 294 293 293 292 292 291 291 291 291 289 288 288 288 288 288 289 289 290 291 290 291 291 290 290 290 289 287 285 285 285 285 285 285 284 283 281 280 278 278 278 282 283 282 278 276 279 277 278 279 279 278 279 280 282 281 281 282 281
286 287 287 287 287 287 287 287 287 287 288 289 289 289 290 291 291 290 289 290 290 290 291 292 293 293 293 293 293 292 292 291 291 292 292 290 288 287 287 287 287 287 288 289 290 290 291 291 291 291 292 292 291 290 288 288 286 285 284 282 281 282 280 278 277 277 277 279 281 281 278 275 277 277 276 277 278 278 278 278 279 279 282 280 279
285 286 286 286 287 287 286 286 287 286 287 287 288 289 289 290 289 288 289 289 289 289 289 291 292 292 292 288 289 291 291 291 291 291 292 290 288 288 287 286 286 286 287 288 287 287 289 289 290 290 290 290 290 289 289 288 287 286 283 280 282 282 280 279 276 277 277 278 279 280 277 275 277 277 275 276 276 276 276 277 278 279 279 278 278
285 286 286 286 286 286 286 286 285 286 286 286 287 288 289 289 289 288 288 288 288 288 289 289 290 290 291 290 288 288 290 291 291 291 291 290 288 288 287 286 285 285 286 287 286 286 286 286 286 287 287 288 287 287 286 288 287 286 285 284 283 282 280 280 278 276 274 275 278 281 276 275 275 275 274 272 271 273 275 276 276 276 276 275 275
Wind_Speed
5 5 5 5 5 5 5 5 4 4 4 4 4 4 3 3 3 3 3 3 3 3 2 2 3 3 3 3 4 4 4 5 5 6 5 6 6 5 3 4 5 8 10 10 11 10 8 9 7 8 9 7 6 6 6 6 6 6 6 6 6 7 7 6 6 7 6 6 7 7 6 7 6 6 6 6 6 6 5 7 6 6 7 6 7
5 5 5 6 5 5 5 5 5 4 5 4 4 4 4 4 3 3 3 3 3 2 3 3 3 2 3 3 4 5 4 4 4 5 5 5 5 5 5 4 5 6 9 11 12 9 10 12 10 9 7 7 7 7 7 7 7 6 6 6 7 7 7 7 7 7 7 7 6 6 5 5 6 6 4 4 5 5 5 5 5 5 5 6 5
5 6 5 5 6 6 6 5 5 5 5 5 4 4 4 4 4 4 4 4 4 3 4 4 4 3 3 3 3 3 4 3 3 4 5 5 5 6 6 4 5 7 7 8 8 9 13 12 10 10 10 10 9 9 8 8 8 8 8 8 8 8 8 8 8 8 7 7 7 6 6 4 5 5 4 3 4 4 4 4 4 4 3 4 4
6 6 6 6 6 6 5 5 5 5 5 4 5 4 4 4 3 2 2 3 3 3 4 4 4 4 3 4 4 4 4 4 4 4 4 4 4 5 6 6 5 7 6 8 10 11 12 12 13 12 11 11 11 10 10 10 9 9 9 9 9 9 9 9 9 9 8 8 8 7 7 5 4 5 6 4 4 3 3 3 3 2 3 3 3
5 6 6 5 5 6 6 6 5 5 5 5 5 4 4 4 4 3 4 4 4 4 3 5 5 4 4 4 4 4 4 4 4 3 4 3 3 3 6 6 8 7 8 8 11 12 12 12 13 12 12 13 12 12 11 11 11 10 10 10 10 10 10 10 9 9 10 9 9 8 8 8 5 4 4 4 3 4 2 1 2 2 2 3 3
5 6 6 6 6 6 6 6 5 5 5 5 5 5 6 5 5 5 5 6 6 6 6 7 6 5 5 5 5 5 4 5 4 4 4 4 4 4 4 5 6 7 8 9 10 10 14 14 12 11 13 13 13 12 13 13 12 12 11 11 11 11 11 11 11 10 10 10 10 9 8 8 8 7 6 5 4 2 2 1 1 1 1 2 3
6 6 6 6 6 6 7 6 6 6 6 6 6 6 6 7 6 7 6 7 8 7 8 7 7 7 7 5 6 5 5 6 5 5 5 5 4 5 5 4 5 5 5 6 8 12 12 11 14 14 15 15 14 14 13 14 14 13 13 13 12 12 12 12 12 12 11 11 11 10 9 8 7 7 7 6 4 3 2 1 0 1 2 2 3
10 10 8 8 8 8 9 9 8 7 7 7 7 7 7 6 7 8 8 8 7 7 6 7 7 7 6 5 5 5 6 6 6 6 6 4 5 5 4 5 4 5 5 6 7 10 13 11 12 14 16 17 16 16 15 15 15 15 14 14 14 14 13 13 13 13 13 12 12 12 10 9 9 9 7 7 6 4 4 3 2 2 3 3 3
12 11 10 9 9 10 9 9 7 8 8 8 8 8 8 7 7 8 8 7 8 8 6 7 6 6 5 5 5 5 6 6 5 6 4 5 6 5 5 5 4 4 5 6 4 5 9 12 10 13 14 17 18 17 17 18 18 19 19 18 18 17 15 15 14 14 14 14 14 13 12 12 12 11 9 8 7 7 5 4 4 4 4 5 4
9 8 9 9 10 9 8 9 8 7 6 7 8 8 8 8 9 8 8 8 7 8 8 6 3 3 4 5 5 5 5 4 4 4 5 6 6 6 5 5 5 6 5 5 3 4 4 8 12 12 13 13 15 19 21 20 18 17 20 21 20 17 16 16 16 17 16 16 14 14 13 12 12 11 10 10 9 8 8 6 6 6 6 6 7
8 8 9 10 7 5 6 7 7 8 8 9 9 9 9 9 10 8 7 7 7 7 6 4 3 3 4 4 5 6 5 4 4 5 6 6 7 6 4 6 6 6 6 5 3 3 4 5 5 6 8 14 15 18 20 20 17 20 20 19 21 20 18 17 18 18 18 16 16 14 14 14 13 13 12 11 10 10 9 8 8 8 8 8 8
11 11 8 6 5 5 6 6 7 8 8 9 9 9 10 9 10 8 7 5 3 3 3 3 2 2 3 5 5 5 6 6 5 6 6 6 6 6 7 7 7 7 7 5 5 4 4 5 5 4 5 8 15 17 17 17 17 21 21 21 20 19 19 19 19 18 19 18 17 17 17 16 15 15 14 13 12 12 11 10 9 9 9 9 10
12 13 11 8 8 7 6 6 5 6 7 9 9 8 7 5 5 4 6 6 5 4 2 3 1 3 3 6 7 6 8 8 9 9 9 8 6 7 7 7 7 7 7 6 6 6 6 5 5 4 5 4 6 12 16 17 17 19 21 22 22 20 21 21 22 18 18 19 18 18 18 17 17 16 16 14 13 13 13 12 12 12 11 11 11
11 12 11 12 14 13 10 9 9 8 9 7 4 4 3 3 4 5 6 8 7 6 5 6 3 8 4 3 5 6 10 10 11 13 11 8 8 8 9 9 9 8 6 7 8 8 7 6 4 6 6 4 5 7 8 11 12 17 21 23 23 24 23 24 22 20 20 19 19 18 19 19 19 17 17 15 15 15 14 14 12 12 12 12 11
8 9 7 12 13 10 9 9 10 9 8 8 6 7 8 10 10 9 7 7 7 4 7 10 8 4 1 3 7 5 6 8 11 15 12 11 10 11 11 10 11 8 6 6 7 7 7 6 6 5 5 6 4 6 8 10 13 17 18 21 22 25 25 25 24 23 22 20 19 20 19 20 20 20 18 17 16 16 15 15 14 14 13 13 13
9 8 9 11 9 10 9 9 10 10 10 10 10 11 10 11 11 10 8 6 7 6 8 10 10 6 4 7 2 1 8 11 9 10 13 14 13 13 10 10 10 8 6 7 7 7 7 6 7 6 6 6 7 8 9 9 13 16 19 20 20 22 27 27 25 26 23 23 21 22 22 21 20 21 21 20 18 18 17 17 15 15 14 14 13
10 13 10 12 11 9 8 7 8 9 10 11 11 12 12 11 10 9 11 11 8 6 7 10 12 11 9 4 1 3 9 7 4 7 7 9 12 11 10 10 11 10 7 6 5 5 6 7 8 7 8 8 8 7 6 8 10 9 13 18 19 19 23 28 28 26 26 25 24 23 23 22 22 21 20 20 19 18 18 16 15 15 15 14 13
11 10 10 10 10 11 8 8 8 7 8 9 10 8 8 8 11 12 13 13 12 9 8 9 13 14 14 11 9 8 4 1 2 6 4 5 5 8 10 11 9 6 7 10 12 11 8 6 7 9 9 9 8 6 6 9 10 9 10 13 19 17 20 23 28 29 29 29 26 25 27 26 25 23 21 20 19 18 17 17 17 15 15 14 13
12 10 10 11 11 11 11 8 8 8 8 8 8 7 6 9 10 11 12 11 11 10 10 7 7 10 12 15 11 4 4 4 10 8 11 3 4 6 8 9 8 8 10 12 12 10 11 8 8 9 8 7 7 7 5 7 8 10 10 12 17 14 15 16 20 25 27 29 27 28 27 26 25 24 24 23 22 21 19 18 17 16 14 14 15
12 12 12 10 10 12 12 12 12 12 8 10 11 11 11 9 8 8 7 7 11 11 8 6 10 10 11 12 12 10 6 5 3 7 9 11 9 4 7 8 6 9 11 10 10 11 10 8 9 9 6 6 6 6 6 8 9 11 10 15 16 17 18 17 18 22 19 24 27 29 28 28 27 26 25 24 22 22 21 19 17 15 15 15 14
9 11 11 13 10 8 7 8 10 11 9 11 9 9 10 9 9 9 10 10 11 10 10 12 11 11 7 9 9 9 8 7 3 3 8 10 13 11 12 4 5 9 10 11 10 9 11 10 12 10 10 8 8 9 9 11 10 11 10 15 18 20 20 20 18 21 18 21 18 20 22 24 26 26 24 23 23 23 20 16 16 16 15 13 13
10 11 9 9 9 8 10 11 9 8 7 10 11 11 12 12 13 13 12 11 8 9 12 11 7 5 6 5 8 7 6 8 9 8 8 11 15 10 11 11 10 6 8 10 12 11 12 11 10 12 9 9 9 8 8 11 11 11 10 15 17 19 21 22 21 18 18 18 12 14 19 20 21 24 26 24 25 24 21 19 17 16 13 13 15
7 8 8 7 7 6 7 7 6 8 8 6 8 9 9 10 10 10 10 10 8 9 11 12 9 8 9 8 7 7 9 11 11 11 11 8 10 12 12 11 13 14 8 9 10 11 10 10 10 9 9 11 10 8 8 10 13 13 17 14 18 18 18 20 22 20 18 17 16 14 15 15 17 18 22 27 28 26 23 21 17 16 14 14 14
8 7 8 8 8 8 9 9 8 7 7 5 6 7 8 9 9 10 10 11 9 10 8 9 10 8 9 8 8 8 11 13 10 8 9 9 9 12 11 10 9 10 5 5 8 8 8 11 11 12 11 10 11 10 11 9 11 22 17 18 19 20 21 22 24 21 18 18 16 15 14 14 12 12 12 15 17 19 18 18 18 17 14 13 11
8 8 10 12 11 11 12 10 7 7 7 7 6 6 6 6 7 9 11 12 9 13 12 11 10 11 11 11 11 12 13 11 9 8 8 8 7 11 10 7 13 11 8 5 6 6 7 9 10 12 12 11 12 11 11 10 12 17 21 15 20 20 21 22 24 26 19 19 18 17 17 15 14 14 16 17 18 17 18 18 16 14 12 11 8
8 9 9 10 10 10 10 11 12 10 8 8 7 6 6 7 7 8 9 9 8 11 11 12 10 12 8 8 10 10 10 8 8 8 9 8 12 14 14 8 11 15 8 3 4 5 8 10 10 10 10 11 11 11 9 11 11 19 21 16 14 19 21 21 22 24 25 21 21 19 18 17 17 17 15 16 16 18 18 17 14 13 12 8 7
8 9 9 9 9 9 9 10 11 11 12 12 11 10 10 9 8 9 8 7 9 9 10 11 12 12 13 13 11 9 9 7 9 8 5 8 10 8 9 15 13 12 14 10 6 14 12 6 10 10 11 11 10 11 12 10 15 20 20 13 12 18 20 22 24 24 25 24 21 20 19 17 17 17 18 19 19 19 16 15 15 12 8 6 8
6 7 8 6 9 10 9 10 10 10 10 11 11 10 11 11 11 11 12 8 9 12 10 11 14 15 14 12 10 12 7 8 8 9 9 10 9 9 9 11 15 18 11 14 11 10 11 11 6 11 10 10 10 10 12 12 10 20 19 11 10 11 19 24 26 26 25 24 24 21 21 19 19 19 19 18 19 17 16 15 10 6 4 1 4
6 5 8 8 8 9 10 10 10 9 9 10 10 10 10 10 11 11 10 8 9 11 8 10 12 12 10 11 10 9 9 9 8 8 8 7 7 9 9 10 9 13 16 14 14 10 8 12 8 8 12 9 9 8 9 10 12 12 8 10 8 12 15 22 25 26 26 30 27 24 23 21 19 19 19 19 18 15 14 12 9 6 4 5 9
7 7 7 8 8 8 7 7 8 9 10 9 9 10 10 10 10 11 12 11 9 8 9 10 11 9 12 11 13 14 9 7 8 7 7 8 8 11 10 11 11 14 14 14 21 8 9 7 8 5 7 9 8 6 8 10 12 14 9 9 9 11 14 19 22 25 25 28 25 24 23 21 20 20 19 18 17 17 15 13 10 7 6 8 12
5 6 7 7 7 8 8 9 8 9 10 10 10 10 10 11 11 10 11 11 11 11 12 10 9 8 10 12 12 13 13 12 9 9 9 10 13 12 12 10 12 13 14 13 15 15 7 12 6 8 4 8 6 6 6 8 9 12 9 9 10 15 17 14 20 23 24 22 24 26 24 21 22 21 18 18 18 16 14 11 9 7 7 11 13
5 6 6 6 7 7 7 8 8 9 9 9 9 10 9 11 11 10 9 11 11 12 11 10 10 10 11 13 12 10 10 9 10 10 10 11 11 11 12 11 11 11 12 13 14 24 10 8 8 4 6 4 4 6 7 6 5 12 8 9 9 12 12 11 16 22 21 23 24 23 24 22 22 21 21 18 16 14 11 9 7 7 10 12 14
5 5 6 6 7 7 8 8 8 8 9 9 9 9 9 10 10 11 10 9 11 11 10 11 10 11 11 11 11 11 12 14 11 9 10 12 10 11 10 10 11 10 11 12 16 20 17 8 8 8 3 5 5 6 7 7 7 7 9 9 8 9 9 8 9 15 18 23 22 21 23 23 23 21 20 18 15 13 10 8 8 10 12 14 16
4 5 6 5 6 7 7 8 8 9 9 10 10 9 10 10 11 9 9 10 11 11 9 10 9 9 9 11 12 11 10 12 10 10 9 9 9 9 10 10 11 10 9 11 14 14 21 12 7 1 3 5 6 7 9 8 7 6 7 6 5 6 7 7 8 9 18 19 19 17 21 23 23 20 20 18 16 13 12 11 11 12 14 16 18
4 4 5 5 6 7 7 8 8 8 9 9 9 10 11 11 12 11 10 9 10 10 10 11 10 9 10 11 12 10 10 11 11 11 10 11 10 11 13 11 13 13 12 14 13 16 18 17 11 8 7 6 9 7 8 4 3 5 6 6 6 7 7 9 8 8 14 19 23 23 23 25 22 24 18 16 13 13 12 12 13 14 14 14 13
5 4 4 5 5 6 7 8 8 8 9 9 9 9 11 11 11 11 11 10 10 10 11 11 10 10 11 12 12 10 11 12 12 10 10 10 10 10 11 10 11 12 11 10 12 13 13 16 14 10 7 8 6 3 2 3 5 5 6 3 6 7 7 7 8 7 12 20 23 25 26 21 22 18 17 15 14 13 13 13 14 13 11 11 12
4 4 4 3 4 5 6 7 8 8 8 9 9 10 10 10 10 10 10 10 10 11 11 11 11 11 11 12 12 10 10 12 13 11 10 11 10 10 11 10 11 11 10 11 12 13 14 16 16 7 2 3 1 2 4 5 4 4 3 5 5 5 5 4 5 6 12 22 18 19 22 22 19 19 18 16 14 13 13 14 12 11 11 11 10
4 3 3 3 3 5 5 6 8 8 8 8 9 9 9 10 10 10 9 9 10 10 11 11 11 10 12 12 12 11 11 13 14 12 11 13 11 12 12 11 11 11 13 13 12 12 13 15 13 12 4 5 4 4 5 6 6 6 5 4 4 4 5 5 6 6 8 10 11 14 15 16 18 18 16 14 13 14 14 13 12 12 11 11 11
5 5 4 4 4 4 5 5 6 7 8 9 9 9 10 10 10 10 9 9 11 11 10 12 11 11 12 12 12 12 13 14 14 14 12 12 12 13 12 12 12 11 12 12 10 12 13 13 13 12 10 6 7 6 4 4 4 5 7 7 5 5 5 7 7 6 5 7 9 11 10 8 10 9 12 14 15 15 14 13 13 13 12 12 9
6 6 6 6 6 5 5 5 6 6 7 7 8 9 9 10 10 10 10 11 12 11 11 11 11 12 12 12 12 13 13 14 13 13 12 13 11 12 11 10 11 12 12 11 10 11 12 12 13 12 9 7 4 2 4 6 5 4 6 8 10 9 8 6 7 9 8 8 7 7 9 10 11 12 15 15 16 16 15 13 14 14 12 9 9
5 6 6 6 7 7 6 6 6 6 6 7 5 6 8 9 10 11 11 10 10 11 11 11 11 11 12 12 13 13 15 16 18 16 15 13 11 12 11 9 10 11 11 10 10 10 10 11 11 9 8 6 7 7 7 9 12 11 9 7 5 6 7 6 7 6 6 9 8 9 9 9 9 8 8 7 8 13 12 13 11 13 10 9 11
7 7 7 6 6 6 7 8 7 5 6 5 6 11 11 9 9 10 10 11 11 11 11 11 12 12 12 12 13 17 18 19 18 19 20 20 20 17 14 9 10 10 11 11 11 10 10 9 12 10 10 11 11 10 9 8 6 4 8 9 8 8 7 6 4 6 5 7 8 8 7 7 8 8 8 7 6 8 8 9 8 7 9 11 12
7 7 7 7 7 6 7 7 8 7 6 6 11 12 14 15 12 11 11 11 11 12 11 12 12 12 12 12 13 14 15 16 17 20 20 21 21 22 23 22 17 12 10 12 12 10 10 12 11 10 11 13 12 9 8 8 8 10 8 9 7 9 11 12 11 7 8 10 8 8 7 8 9 9 8 6 8 9 8 8 11 12 12 13 12
6 6 7 7 8 8 6 7 8 7 7 10 14 14 15 15 13 11 11 11 11 11 12 13 13 11 12 12 12 10 11 13 13 13 16 21 22 23 24 22 22 23 21 15 13 11 11 11 12 12 11 13 10 8 7 8 9 9 7 7 8 13 12 12 10 11 9 13 10 9 8 7 5 7 9 8 8 7 7 10 14 14 13 12 11
5 5 8 8 8 8 8 8 9 8 9 11 13 15 16 16 16 14 11 12 12 13 13 14 13 13 12 12 12 10 10 14 14 14 13 14 17 22 23 23 23 23 22 24 23 17 11 12 13 14 13 10 11 10 10 12 9 9 8 9 10 9 9 11 9 7 10 11 7 8 8 8 10 9 8 8 7 7 8 12 15 15 12 12 10
4 5 5 6 7 8 8 9 9 9 10 10 13 15 16 17 16 14 11 13 13 14 15 15 14 14 14 12 12 12 11 11 11 12 12 13 13 13 14 14 13 16 20 23 23 23 20 15 14 15 13 10 13 11 10 11 12 12 11 12 11 10 11 11 9 7 9 14 12 9 5 8 9 9 8 8 7 7 7 11 16 13 12 10 8
5 6 6 6 5 5 7 7 9 8 8 11 13 14 15 16 16 14 11 11 12 13 14 14 15 16 16 14 13 14 13 12 11 12 12 12 11 12 13 13 13 12 13 13 13 13 14 15 16 17 15 11 12 8 9 12 15 13 16 16 17 16 8 5 5 5 8 11 6 7 6 8 8 8 8 9 8 7 8 11 13 12 10 9 10
6 5 5 5 7 9 7 7 8 9 9 10 12 14 14 14 16 10 10 10 12 12 13 13 13 13 15 14 14 13 13 13 15 16 15 12 11 14 15 14 13 12 12 13 15 16 15 14 14 15 14 12 11 9 11 12 11 9 6 4 5 8 9 9 7 6 7 8 7 8 6 7 9 9 9 9 9 9 8 7 10 9 9 11 12
7 6 7 6 6 8 11 9 7 10 9 10 12 14 14 14 12 8 8 9 10 12 12 13 13 13 14 15 15 14 13 12 14 16 17 16 13 15 15 15 14 13 12 9 14 19 21 20 20 20 19 16 16 17 19 21 15 12 8 9 11 10 10 9 5 6 5 7 6 4 6 8 7 8 9 9 8 8 8 7 6 7 11 13 11
9 7 8 9 8 6 9 12 9 9 12 14 13 15 16 13 12 9 8 9 10 10 11 13 12 12 13 17 15 13 15 15 15 16 18 15 14 14 13 14 16 14 12 9 7 10 16 19 20 19 17 15 16 18 20 21 22 16 13 14 11 11 10 10 7 5 5 5 5 6 8 7 10 9 10 8 6 4 6 5 6 9 13 10 10
9 8 7 7 9 7 9 10 14 14 13 15 16 15 15 13 11 7 9 8 10 10 9 11 9 10 11 12 17 17 16 16 19 19 20 16 13 13 13 13 14 15 13 10 10 10 9 9 9 10 10 12 12 11 14 26 25 20 15 13 12 11 12 12 10 8 5 4 6 8 8 9 11 9 8 8 4 3 3 7 8 8 6 5 5
Wind_Direction
190 190 190 195 188 185 188 191 187 183 186 192 189 188 191 196 191 188 189 193 186 195 196 201 212 205 223 214 213 220 219 214 212 215 214 211 205 185 236 256 256 183 169 164 165 177 176 180 192 176 189 190 179 181 180 181 182 180 176 180 177 174 169 166 165 162 159 158 157 154 149 146 135 124 139 134 114 100 99 106 99 82 80 70 68
193 194 192 195 190 187 195 193 193 188 191 195 193 198 198 195 197 195 196 200 204 196 212 202 217 221 224 220 223 228 221 221 219 210 214 214 208 192 191 253 276 216 208 191 199 204 175 179 183 191 206 189 187 194 192 192 189 190 193 190 191 187 184 178 177 174 171 169 168 167 160 154 147 142 131 134 127 126 112 100 95 91 91 77 68
199 194 198 196 196 194 200 193 198 194 198 201 187 203 201 208 202 205 206 206 211 190 219 214 212 211 215 224 215 227 227 232 232 235 225 219 216 220 189 221 265 267 228 219 233 199 189 212 202 206 205 198 197 200 201 203 198 200 201 199 201 201 198 193 188 187 183 182 180 180 170 169 164 150 143 130 134 131 122 108 101 83 74 98 97
205 196 203 199 200 200 199 197 204 193 198 198 188 198 206 200 185 213 215 217 211 205 214 226 216 214 208 216 219 224 225 225 232 233 236 235 238 230 220 209 228 262 253 212 211 204 204 225 209 214 208 201 200 203 205 207 207 205 206 205 205 206 205 204 200 197 196 194 191 190 181 187 190 178 162 163 152 135 123 108 95 81 54 44 54
206 205 204 205 202 201 204 203 204 193 193 185 178 182 192 192 188 193 206 214 216 211 205 227 221 213 210 214 216 222 228 235 230 240 240 235 237 253 239 217 217 218 244 250 220 212 215 214 230 222 216 207 207 206 209 214 214 212 211 211 210 209 210 210 209 205 203 203 202 198 197 186 210 207 178 174 182 164 147 128 93 72 57 42 34
210 206 205 209 206 209 210 205 200 186 185 179 194 197 204 202 199 197 206 214 215 215 208 216 219 211 213 206 215 217 216 220 222 228 236 231 224 226 233 228 220 218 215 228 253 225 222 227 235 227 214 215 214 213 215 217 217 217 218 217 216 214 213 213 213 214 212 210 207 207 205 203 190 207 202 199 197 199 177 152 146 71 38 27 19
200 199 200 199 199 210 216 214 195 186 190 192 199 202 207 205 199 209 211 217 221 215 212 217 214 211 214 206 212 213 219 218 212 218 228 229 228 222 219 221 226 224 219 222 223 235 238 241 225 223 219 222 219 221 220 219 217 219 217 220 222 218 216 216 215 217 216 217 215 212 210 217 213 204 207 213 219 215 218 237 277 338 0 353 357
202 205 207 202 200 203 211 211 191 188 196 190 197 205 207 208 207 210 215 220 223 223 215 223 219 218 216 211 215 215 223 219 212 216 220 226 232 236 232 229 220 217 219 225 227 217 219 226 222 214 221 226 222 222 225 221 219 215 215 218 218 220 218 218 220 219 218 218 217 217 215 219 220 223 215 218 224 229 234 244 273 300 305 314 324
207 200 205 207 210 213 214 205 186 194 193 193 197 205 204 207 212 211 222 227 223 230 226 223 221 223 225 227 226 226 232 227 219 223 218 227 232 236 242 240 243 244 233 230 236 243 208 220 227 221 219 227 225 228 229 222 215 221 218 215 213 213 215 215 216 223 220 217 219 222 219 219 222 220 216 218 223 231 239 247 253 249 271 288 288
208 206 215 213 212 209 199 180 172 190 204 205 208 205 210 209 219 213 215 224 226 226 232 226 229 230 234 232 240 244 252 256 250 249 243 232 231 235 241 252 242 234 234 232 240 251 261 224 227 232 231 226 235 228 229 230 231 232 216 213 212 215 218 216 220 216 216 220 220 222 224 225 226 228 224 224 227 234 242 250 265 278 276 277 285
202 209 226 234 228 217 209 192 183 194 206 206 206 203 206 211 217 212 204 217 229 229 233 213 223 251 262 251 245 248 254 252 258 251 245 245 238 227 221 238 246 251 251 246 245 254 260 261 231 222 228 228 231 238 245 246 226 227 235 234 228 226 226 222 219 225 223 222 221 221 224 223 224 229 228 229 230 236 242 247 253 255 259 264 273
210 213 212 226 235 230 221 196 200 208 211 211 209 202 198 196 207 210 201 210 244 240 218 186 206 260 294 288 275 272 264 264 257 254 256 249 248 242 233 227 229 240 246 249 247 245 248 259 261 250 249 232 232 235 242 235 221 227 233 232 234 232 230 222 228 226 223 223 221 222 222 223 223 226 229 226 228 233 237 247 259 267 270 273 275
214 217 213 203 210 221 218 210 201 213 220 223 220 213 201 177 170 182 205 212 222 208 159 131 161 274 249 260 267 257 256 250 253 251 245 246 244 243 241 233 225 226 233 235 237 232 230 231 243 254 250 265 244 238 237 236 230 232 231 232 236 235 229 227 215 218 223 225 223 220 222 223 225 226 230 230 233 236 238 238 240 247 256 265 270
212 207 207 206 217 216 204 203 198 208 222 227 212 215 181 184 181 201 205 217 226 178 151 133 214 225 233 269 257 244 240 233 236 245 239 236 236 237 239 236 230 222 218 225 231 229 228 226 222 228 239 239 245 236 237 236 231 230 231 227 229 235 236 234 236 225 221 221 224 221 222 225 225 225 227 229 233 234 238 241 245 251 257 261 268
210 207 208 220 223 207 202 200 200 199 211 222 216 214 208 206 202 211 203 207 224 171 174 193 231 192 172 353 274 285 240 223 231 238 225 224 223 231 231 233 233 222 216 218 229 230 231 228 230 229 229 241 241 241 240 236 228 223 229 232 228 234 235 237 237 231 221 215 217 221 225 225 226 224 226 228 231 237 240 242 244 249 255 262 268
212 204 215 220 211 214 209 202 200 192 196 204 206 213 204 206 200 206 206 204 206 213 193 202 222 157 226 210 268 316 286 253 237 231 214 217 215 225 222 229 229 222 221 228 229 221 226 220 229 231 230 228 223 232 234 238 236 230 228 231 233 227 233 238 237 238 232 225 216 217 224 227 228 227 227 227 231 236 238 241 244 249 254 258 265
207 210 208 223 217 214 216 202 196 200 205 210 210 208 202 201 193 193 199 212 213 211 196 203 216 217 219 132 211 241 233 267 341 273 183 211 221 222 225 227 225 222 215 230 235 237 227 224 224 223 226 223 220 217 226 237 244 240 237 234 233 231 230 233 239 237 239 228 224 216 217 222 224 228 225 227 228 229 235 239 243 249 255 257 263
246 231 215 212 218 222 222 221 207 202 205 217 219 203 190 189 198 204 207 207 217 202 209 193 214 218 224 226 208 234 216 162 55 267 139 226 224 223 228 227 218 207 224 236 234 233 231 226 219 230 226 223 223 223 222 236 239 239 232 232 229 225 225 229 234 237 241 237 231 226 221 220 222 225 225 225 226 230 236 240 244 248 254 262 265
239 228 217 206 215 223 224 220 216 209 207 218 225 215 208 211 207 210 215 209 207 226 212 188 200 232 226 233 243 226 200 229 248 278 281 197 216 230 233 229 218 214 227 231 234 235 236 227 223 232 233 223 228 224 217 232 231 234 245 248 239 228 225 223 225 229 238 245 231 222 224 226 223 219 224 226 226 228 232 237 241 245 248 253 260
247 245 247 244 232 229 215 215 218 224 201 211 215 216 217 209 201 207 213 214 205 216 215 182 198 227 212 229 235 247 230 250 298 263 278 290 266 220 228 243 218 226 229 231 225 225 227 217 214 222 226 227 229 227 221 229 237 240 244 246 243 238 227 221 222 228 232 239 245 242 233 226 230 227 223 226 226 226 225 230 235 242 247 252 257
244 247 244 242 235 233 238 232 228 223 209 219 218 215 217 215 210 209 210 211 208 212 221 228 214 227 163 217 223 230 228 229 229 182 245 266 268 253 260 190 228 237 233 229 230 223 226 229 231 228 233 230 225 228 229 232 231 231 234 236 237 236 233 225 220 223 224 232 241 243 248 239 232 231 230 225 217 220 222 230 234 237 245 259 268
246 248 250 256 259 249 241 237 224 226 223 220 216 213 213 213 214 211 208 214 215 216 221 228 218 209 194 201 201 224 237 249 235 226 239 227 260 268 269 269 264 227 214 228 229 230 230 232 231 231 226 223 222 220 212 226 228 227 226 227 231 234 234 230 223 217 219 225 227 238 239 242 239 232 232 229 222 221 221 218 227 236 241 238 247
246 243 239 243 245 245 247 246 240 226 222 210 218 221 224 225 224 223 215 203 203 206 220 233 237 233 229 220 212 195 202 214 224 218 223 232 247 258 257 244 254 272 228 217 224 227 224 223 224 220 220 223 223 213 210 219 225 228 229 225 230 232 235 237 227 216 212 215 216 214 222 226 230 236 240 237 232 229 226 229 227 234 231 236 244
248 248 245 242 244 248 249 255 256 255 254 248 234 228 227 225 225 220 220 214 212 217 223 224 218 226 227 218 224 219 226 234 238 224 207 231 242 268 267 270 264 240 242 197 214 226 215 221 218 225 222 222 225 215 218 221 223 227 226 224 226 228 230 232 230 220 207 210 207 203 201 200 196 197 212 225 223 227 227 227 225 225 227 234 244
241 244 246 246 248 249 251 250 249 250 252 247 240 233 230 226 227 228 229 224 212 215 219 215 204 212 222 215 217 224 232 231 228 233 240 236 228 259 258 250 263 264 247 209 228 210 217 226 217 221 226 223 225 221 217 214 225 226 224 228 221 225 227 231 233 230 211 206 202 200 199 191 187 189 198 203 211 209 216 217 217 216 224 240 251
255 248 249 251 251 251 252 253 254 254 249 246 242 228 218 225 228 229 227 227 224 222 225 223 220 225 224 228 220 224 234 229 230 227 234 232 248 250 265 252 251 271 263 218 207 240 225 219 220 225 223 223 223 220 214 220 223 228 223 223 226 226 226 227 230 230 222 203 203 199 195 192 189 186 190 201 201 208 209 216 211 216 224 225 245
271 273 267 257 257 258 257 255 253 250 250 250 250 249 247 245 239 233 231 219 219 220 226 225 230 226 221 227 229 228 233 217 218 222 208 229 237 238 246 270 273 260 271 258 211 215 238 214 203 216 217 220 217 217 218 213 220 224 221 219 224 224 227 226 227 229 229 218 206 201 198 192 189 185 190 197 204 208 212 209 212 207 203 226 252
267 269 271 260 260 262 259 257 259 260 258 257 257 254 251 248 246 244 245 224 220 217 223 222 231 235 236 236 236 240 230 221 218 225 222 227 228 236 239 249 265 278 263 268 252 250 191 237 204 204 213 210 217 216 213 218 222 221 215 213 210 217 222 226 226 227 228 224 214 202 197 191 187 191 196 191 201 203 199 198 173 147 115 61 292
279 274 275 270 265 264 266 264 262 260 260 260 260 259 258 256 253 251 245 231 227 230 224 225 233 232 230 225 227 235 229 224 217 216 222 218 224 233 228 231 234 259 279 272 263 249 230 193 235 214 200 209 215 213 217 215 221 212 189 205 206 220 220 223 228 227 227 227 222 211 194 188 188 191 192 189 188 173 160 148 146 143 165 229 252
290 287 283 278 272 262 255 261 259 262 262 260 257 257 258 259 260 258 255 253 244 241 239 238 239 235 237 234 235 241 235 220 217 214 215 222 227 230 230 232 232 244 257 269 278 235 260 198 221 228 178 215 212 210 208 218 217 208 199 201 208 217 213 219 225 229 228 228 223 215 196 187 187 186 186 184 173 168 163 160 158 163 199 238 250
289 295 294 292 285 280 275 271 270 269 266 264 261 257 253 254 253 252 251 249 250 250 250 246 245 239 237 239 238 243 243 241 229 225 222 225 236 236 237 229 238 238 247 256 270 272 173 257 221 235 215 197 201 216 211 225 219 207 204 207 213 219 217 219 222 225 226 229 226 218 206 199 189 176 185 179 173 169 165 163 169 182 222 240 247
308 308 303 296 293 288 285 281 279 276 273 269 266 261 259 255 257 255 250 247 249 248 249 246 250 246 245 243 239 241 242 245 247 245 245 240 242 243 240 240 239 229 240 248 248 270 242 249 272 227 223 182 192 205 218 214 212 198 206 209 213 216 217 224 223 224 225 231 228 221 211 201 191 182 180 167 172 172 173 174 174 200 228 238 243
316 310 305 301 298 293 288 284 281 279 276 272 267 263 256 255 256 259 260 253 251 252 252 252 247 248 250 252 247 246 249 253 251 247 242 245 240 239 238 238 237 230 227 238 251 263 274 240 255 254 179 171 213 198 218 216 204 201 211 219 213 216 217 219 222 224 226 228 223 216 213 200 194 182 171 165 165 164 169 174 193 219 232 239 247
318 306 299 301 299 296 293 287 283 278 275 273 270 264 259 255 256 253 255 253 255 255 251 257 254 250 253 253 253 250 244 247 248 245 242 242 238 239 238 233 241 237 219 234 248 258 271 269 242 184 214 184 239 181 211 206 205 179 203 192 194 190 210 210 214 218 222 229 218 206 208 199 194 173 168 158 161 166 182 192 209 224 233 238 244
313 303 306 305 302 296 288 285 281 278 274 273 271 266 264 264 263 262 258 255 254 255 255 254 253 252 251 250 253 249 248 247 244 243 238 239 237 238 241 231 235 234 225 223 235 248 258 267 261 249 225 208 221 219 210 203 136 161 188 193 185 199 207 206 211 215 218 222 218 217 206 207 192 173 157 155 167 182 194 208 217 222 227 238 239
306 300 290 294 293 290 287 285 281 279 274 268 266 265 266 267 266 265 263 258 257 258 257 258 254 249 248 251 249 243 243 246 246 241 237 236 236 238 242 239 240 243 235 233 232 247 258 269 266 251 236 219 222 158 120 125 155 179 199 164 187 200 195 201 203 200 211 213 210 211 211 190 167 159 157 170 182 194 204 212 220 221 224 223 225
296 297 291 272 280 287 288 287 286 283 279 278 276 274 272 267 264 261 260 259 257 257 256 256 256 251 252 249 253 245 242 246 250 241 239 236 236 237 241 238 238 240 240 233 235 235 245 253 264 249 181 221 179 174 164 169 158 154 132 170 177 162 162 168 181 192 198 207 197 180 169 168 164 165 173 180 190 199 207 211 207 205 212 217 202
308 292 290 288 276 277 278 286 289 287 286 281 275 272 271 275 268 260 256 253 251 253 257 258 255 252 251 253 252 247 245 244 249 246 238 238 236 237 239 241 239 239 239 239 236 239 242 251 256 261 190 201 201 204 185 169 162 162 168 158 147 160 155 162 182 183 188 183 164 169 169 169 172 172 178 185 196 203 200 194 196 200 193 186 186
325 327 321 310 301 295 289 287 284 286 292 289 285 283 281 275 271 265 261 258 257 256 252 256 256 254 252 252 253 248 247 246 248 249 245 243 238 239 238 240 242 238 243 242 238 239 241 249 253 249 254 215 209 214 179 166 164 170 164 157 177 185 182 171 175 180 179 178 181 172 171 159 164 171 185 193 195 188 188 191 191 187 180 184 185
341 335 332 327 318 301 294 290 288 286 285 285 287 288 283 280 277 271 266 265 267 262 260 257 255 254 252 253 251 250 248 249 249 251 247 249 245 246 239 235 241 238 242 243 239 239 241 244 246 251 241 225 201 150 118 153 174 200 192 179 183 181 182 177 172 176 180 170 165 163 161 158 164 166 176 182 186 186 185 185 183 177 173 177 191
332 330 325 323 320 318 308 297 295 289 284 283 284 284 290 287 285 285 281 270 265 268 265 263 261 257 256 252 252 250 248 249 248 250 250 249 248 252 247 229 236 238 243 242 241 239 242 243 250 245 242 220 208 170 173 188 193 198 186 176 178 160 164 170 192 185 172 166 164 161 166 165 158 163 170 173 183 182 181 171 168 170 172 185 197
326 323 321 316 310 306 311 310 304 290 283 277 271 268 265 273 283 282 281 277 272 268 267 268 266 260 259 257 254 250 250 250 249 249 250 250 248 247 253 240 233 237 238 241 240 237 239 240 242 240 239 233 224 202 198 197 185 152 166 179 174 166 156 178 172 192 173 161 161 165 165 167 161 159 164 160 162 166 167 166 175 163 179 194 202
319 318 313 310 309 305 298 297 296 292 282 278 281 276 275 268 268 275 275 277 271 267 265 264 266 267 263 259 259 256 251 250 250 250 250 250 248 248 248 246 243 237 239 239 241 235 235 241 243 235 235 240 233 209 199 189 191 189 178 176 163 157 175 176 190 181 198 171 167 162 171 173 166 164 166 160 162 166 167 176 168 167 183 197 198
318 315 307 298 298 297 289 284 278 276 276 281 286 285 280 277 271 272 277 276 273 269 265 263 263 264 265 263 259 257 252 249 249 248 245 245 247 248 248 247 246 242 237 236 240 240 234 242 244 239 236 236 238 204 200 186 193 186 179 170 170 176 178 196 191 186 179 175 169 171 167 168 161 154 165 169 164 161 164 167 167 179 188 193 190
297 291 293 294 290 290 281 280 276 272 271 273 275 275 275 275 275 271 273 270 270 268 267 265 264 261 258 259 264 256 254 248 243 245 248 248 244 244 247 249 247 244 243 241 237 237 238 237 241 244 234 233 232 222 196 201 185 179 172 183 190 194 197 192 184 159 158 170 144 162 165 168 168 169 164 162 151 155 159 168 179 186 187 186 184
283 282 279 272 276 276 274 276 274 267 262 264 263 262 263 265 267 266 266 268 269 270 269 268 266 265 261 260 262 262 256 248 245 242 241 245 248 249 248 246 246 244 243 242 240 238 235 237 239 243 238 219 227 222 191 176 174 183 178 193 191 186 194 198 179 152 152 171 177 153 138 161 167 159 161 152 147 147 153 176 182 178 182 175 182
295 298 302 296 282 280 278 276 276 269 259 266 265 261 261 263 266 267 267 266 269 269 269 268 267 265 264 262 259 262 263 258 251 242 242 244 246 249 250 251 248 246 243 239 236 236 235 234 237 240 244 230 229 209 173 182 189 190 190 189 185 190 166 104 63 123 155 183 159 140 156 155 163 158 159 152 148 150 164 173 171 178 172 181 158
288 282 279 278 289 296 287 280 282 277 271 271 270 268 262 263 266 269 265 264 265 266 266 264 261 264 268 263 261 259 257 256 255 246 243 244 246 250 251 254 254 251 248 240 236 235 234 233 234 236 237 231 219 194 179 180 188 184 173 168 171 171 162 169 169 151 157 180 174 171 148 148 162 153 146 146 152 156 158 161 170 166 183 158 139
296 294 292 291 288 296 301 292 272 284 281 280 276 273 268 259 266 269 267 266 266 264 262 264 262 262 263 261 260 262 261 259 253 248 246 240 245 248 251 254 255 255 256 249 237 240 241 241 242 240 241 235 217 193 181 182 179 169 154 164 177 164 160 168 154 157 161 155 175 159 129 134 152 140 138 149 154 150 154 163 165 182 155 141 136
302 297 301 296 290 276 293 294 285 284 288 287 277 271 271 253 249 264 266 267 266 263 266 263 260 258 257 254 248 252 258 259 258 251 247 242 245 248 248 252 256 255 254 252 247 244 244 245 245 243 237 225 200 188 185 183 181 168 174 181 166 155 171 173 152 144 126 151 164 142 132 145 145 144 135 129 113 133 149 150 153 146 135 133 131
292 294 295 294 295 282 285 284 289 285 286 289 286 275 258 247 244 254 262 266 268 262 265 267 259 258 258 254 245 241 247 254 256 255 252 245 245 246 246 248 249 251 252 248 244 243 240 236 235 233 228 209 195 191 193 191 184 179 186 179 164 167 172 174 159 131 126 188 173 167 133 148 147 153 134 135 137 124 152 152 147 151 158 153 127